Flag for U.S.A. Weather past 2 weeks in Fresno, California, U.S.A.

Now
70 °F

Sunny.


Feels Like: 77 °F
Forecast: 61 / 86 °F
Wind: 3 mph from North

Location: Fresno Air Terminal

Current Time: Oct 1, 2014 at 10:52:23 AM

Latest Report: Oct 1, 2014 at 9:53 AM


Visibility: 10 mi

Pressure: 29.89 "Hg

Humidity: 49%

Dew point: 50 °F

Location of FresnoLocation

Historic Weather in Fresno — Graph

°F

Fresno temperature yesterday

Maximum temperature yesterday: 86 °F (at 2:53 PM)
Minimum temperature yesterday: 64 °F (at 4:53 AM)
Average temperature yesterday: 75 °F

Past Weeks' High & Low Weather Summary

 TemperatureHumidityPressure
High100 °F (Sep 17, 4:53 PM)83% (Sep 28, 7:53 AM)30.01 "Hg (Sep 28, 7:53 AM)
Low59 °F (Sep 27, 6:53 AM)16% (Sep 17, 3:53 PM)29.66 "Hg (Sep 17, 5:53 PM)
Average76 °F48%29.87 "Hg
* Reported Sep 16 8:53 AM — Oct 1 8:53 AM, Fresno, Weather by CustomWeather, © 2014

Note: Actual official high and low records may vary slightly from our data, if they occured in-between our weather recording intervals... More about our weather records

Advertising

Fresno weather history for previous 24 hours

 ConditionsComfort  
Time TempWeatherWind HumidityBarometerVisibility
8:53 AM
Oct 1
66 °FSunny.6 mph54%29.88 "Hg10 mi
7:53 AM63 °FClear.9 mph63%29.87 "Hg10 mi
6:53 AM63 °FClear.7 mph68%29.85 "Hg10 mi
5:53 AM63 °FClear.7 mph73%29.82 "Hg10 mi
4:53 AM64 °FClear.5 mph70%29.81 "Hg10 mi
3:53 AM64 °FClear.5 mph70%29.80 "Hg10 mi
2:53 AM66 °FClear.6 mph68%29.80 "Hg10 mi
1:53 AM68 °FClear.7 mph63%29.80 "Hg10 mi
12:53 AM67 °FClear.8 mph61%29.80 "Hg10 mi
11:53 PM
Sep 30
70 °FClear.7 mph53%29.80 "Hg10 mi
10:53 PM72 °FClear.10 mph48%29.80 "Hg10 mi
9:53 PM74 °FClear.12 mph45%29.79 "Hg10 mi
8:53 PM77 °FClear.14 mph40%29.79 "Hg10 mi
7:53 PM80 °FClear.12 mph36%29.78 "Hg10 mi
6:53 PM82 °FSunny.10 mph35%29.77 "Hg10 mi
5:53 PM85 °FPassing clouds.12 mph31%29.77 "Hg10 mi
4:53 PM86 °FPassing clouds.10 mph29%29.78 "Hg10 mi
3:53 PM86 °FPassing clouds.5 mph29%29.80 "Hg10 mi
2:53 PM86 °FSunny.12 mph28%29.82 "Hg10 mi
1:53 PM84 °FPassing clouds.No wind31%29.85 "Hg10 mi
12:53 PM83 °FPassing clouds.N/A33%29.87 "Hg8 mi
11:53 AM80 °FPassing clouds.3 mph36%29.90 "Hg9 mi
10:53 AM77 °FPassing clouds.3 mph40%29.92 "Hg10 mi
Weather by CustomWeather, © 2014

See weather overviewHow to use our weather pages